Location: Fort Worth, Tx
(32.7431°N, 97.3695°W)
Time: 08:25:13
(UTC-04:00)

Explorer 11/Cluster Stage 4 - Pass Details

Date: 28 January 2023
Orbit: 466 x 1241 km, 28.8° (Epoch: 02 April)

Event Time Altitude Azimuth Distance (km) Brightness Sun altitude
Rises 07:52:36 0° 230° (SW) 4,161 10.0 -7.7°
Reaches altitude 10° 07:55:48 10° 222° (SW) 3,196 9.5 -7.0°
Maximum altitude 08:03:01 36° 159° (SSE) 1,787 8.8 -5.6°
Drops below altitude 10° 08:09:40 10° 96° (E) 2,934 11.2 -4.2°
Sets 08:12:28 0° 88° (E) 3,787 11.6 -3.7°
